GW0140 Weather Reports


time (UTC)temp
F
wind
direction
speed
knots
gust
knots
rain 1hr
in
rain 24hr
in
rain mn
in
humidity
%
barometer
mb
20260506013815 48 346 4.3 7.8 0.00 0.00 0.00 88 1011.9
20260506012830 48 330 5.2 7.8 0.00 0.00 0.00 87 1011.8
20260506011841 48 5 3.5 7.8 0.00 0.00 0.00 87 1011.8
20260506010830 48 16 4.3 9.6 0.00 0.00 0.00 87 1012.0
20260506005847 48 19 5.2 9.6 0.00 0.00 0.00 87 1011.9
20260506004907 49 12 6.1 9.6 0.00 0.00 0.00 87 1012.0
20260506003927 49 5 5.2 10.4 0.00 0.00 0.00 87 1012.1
20260506001810 48 17 5.2 10.4 0.00 0.00 0.00 87 1012.2
20260506000736 48 5 5.2 10.4 0.00 0.00 0.00 87 1012.2
20260505235730 49 5 5.2 9.6 0.00 0.00 0.00 87 1012.2
20260505234704 49 5 5.2 8.7 0.00 0.00 0.00 87 1012.2
20260505233632 49 355 5.2 10.4 0.00 0.00 0.00 86 1012.3
20260505232603 49 355 5.2 10.4 0.00 0.00 0.00 86 1012.3
20260505231548 49 19 5.2 7.8 0.00 0.00 0.00 85 1012.3
20260505230612 49 5 4.3 7.8 0.00 0.00 0.00 85 1012.4
20260505225612 49 5 4.3 7.8 0.00 0.00 0.00 85 1012.4
20260505224558 49 19 5.2 7.8 0.00 0.00 0.00 84 1012.5
20260505223531 49 19 5.2 9.6 0.00 0.00 0.00 84 1012.5
20260505222524 49 5 5.2 11.3 0.00 0.00 0.00 83 1012.5
20260505221504 50 26 5.2 11.3 0.00 0.00 0.00 83 1012.6
20260505220501 50 17 6.1 11.3 0.00 0.00 0.00 82 1012.5
20260505215459 50 14 6.1 12.2 0.00 0.00 0.00 82 1012.5
20260505214438 50 5 7.0 12.2 0.00 0.00 0.00 81 1012.4
20260505213418 51 24 6.1 9.6 0.00 0.00 0.00 81 1012.4
20260505212343 51 17 6.1 14.8 0.00 0.00 0.00 81 1012.4
20260505211322 51 32 6.1 14.8 0.00 0.00 0.00 80 1012.4
20260505210305 52 38 7.0 13.9 0.00 0.00 0.00 80 1012.3
20260505205324 52 45 8.7 13.9 0.00 0.00 0.00 80 1012.4
20260505204333 52 42 9.6 12.2 0.00 0.00 0.00 79 1012.3
20260505203327 53 58 7.0 12.2 0.00 0.00 0.00 78 1012.3
20260505201224 53 51 3.5 7.8 0.00 0.00 0.00 78 1012.3
20260505195100 54 59 6.1 8.7 0.00 0.00 0.00 76 1012.0
20260505194048 54 70 5.2 9.6 0.00 0.00 0.00 76 1011.8
20260505193021 54 62 6.1 9.6 0.00 0.00 0.00 76 1011.7
20260505192011 54 62 5.2 8.7 0.00 0.00 0.00 77 1011.6
20260505190952 54 101 4.3 8.7 0.00 0.00 0.00 77 1011.4
20260505190007 54 78 5.2 8.7 0.00 0.00 0.00 77 1011.2
20260505183835 54 75 7.8 9.6 0.00 0.00 0.00 75 1011.3
20260505182843 55 71 8.7 10.4 0.00 0.00 0.00 75 1011.3
20260505181822 55 83 7.8 12.2 0.00 0.00 0.00 74 1011.3
20260505180828 55 69 8.7 12.2 0.00 0.00 0.00 73 1011.3
20260505175849 55 84 8.7 10.4 0.00 0.00 0.00 72 1011.3
20260505174830 55 109 6.1 10.4 0.00 0.00 0.00 74 1011.3
20260505172616 54 108 6.1 11.3 0.00 0.00 0.00 78 1011.2
20260505170515 54 117 8.7 11.3 0.00 0.00 0.00 73 1011.3
20260505165458 55 106 7.8 12.2 0.00 0.00 0.00 72 1011.3
20260505164510 55 107 8.7 12.2 0.00 0.00 0.00 72 1011.4
20260505163447 55 95 7.0 11.3 0.00 0.00 0.00 71 1011.4
20260505162440 55 113 8.7 11.3 0.00 0.00 0.00 72 1011.0
20260505161453 55 98 7.8 11.3 0.00 0.00 0.00 71 1011.1
20260505160518 55 114 8.7 13.0 0.00 0.00 0.00 70 1011.2
20260505152521 55 115 7.8 12.2 0.00 0.00 0.00 68 1011.4
20260505140126 55 110 8.7 11.3 0.00 0.00 0.00 72 1011.7
20260505121322 57 105 8.7 12.2 0.00 0.00 0.00 67 1011.6
20260505120325 57 94 9.6 12.2 0.00 0.00 0.00 66 1011.6
20260505115328 57 113 10.4 13.0 0.00 0.00 0.00 67 1011.6
20260505114328 56 98 11.3 13.9 0.00 0.00 0.00 68 1011.7
20260505112115 58 95 8.7 11.3 0.00 0.00 0.00 67 1011.6
20260505111047 58 95 6.1 10.4 0.00 0.00 0.00 66 1011.8
20260505110104 57 99 6.1 9.6 0.00 0.00 0.00 67 1011.9
20260505102038 57 111 5.2 9.6 0.00 0.00 0.00 69 1012.3
20260505101012 57 101 5.2 9.6 0.00 0.00 0.00 70 1012.3
20260505094844 56 101 7.0 10.4 0.00 0.00 0.00 69 1012.4
20260505093834 56 90 6.1 10.4 0.00 0.00 0.00 70 1012.4
20260505092812 56 80 4.3 8.7 0.00 0.00 0.00 71 1012.4
20260505091829 56 60 3.5 7.8 0.00 0.00 0.00 70 1012.4
20260505090814 55 70 3.5 7.8 0.00 0.00 0.00 70 1012.4
20260505085757 55 74 4.3 7.8 0.00 0.00 0.00 69 1012.3
20260505084744 55 70 3.5 7.0 0.00 0.00 0.00 71 1012.4
20260505083711 54 22 3.5 9.6 0.00 0.00 0.00 71 1012.6
20260505082716 54 34 3.5 9.6 0.00 0.00 0.00 71 1012.5
20260505081740 53 355 3.5 7.8 0.00 0.00 0.00 72 1012.7
20260505080718 53 49 2.6 7.8 0.00 0.00 0.00 76 1012.6
20260505075647 52 26 4.3 7.0 0.00 0.00 0.00 75 1012.6
20260505074634 51 20 3.5 6.1 0.00 0.00 0.00 78 1012.6
20260505073602 51 38 2.6 5.2 0.00 0.00 0.00 81 1012.5
20260505072607 50 42 3.5 7.8 0.00 0.00 0.00 82 1012.7
20260505071623 50 39 4.3 8.7 0.00 0.00 0.00 82 1012.7
20260505065542 49 42 3.5 7.8 0.00 0.00 0.00 86 1013.0
20260505064541 48 55 5.2 7.8 0.00 0.00 0.00 87 1013.1
20260505063540 48 54 3.5 7.0 0.00 0.00 0.00 88 1013.3
20260505062525 47 45 2.6 5.2 0.00 0.00 0.00 89 1013.2
20260505061506 47 54 2.6 5.2 0.00 0.00 0.00 90 1013.2
20260505060503 46 67 0.9 3.5 0.00 0.00 0.00 90 1013.2
20260505055445 46 68 0.0 1.7 0.00 0.00 0.00 90 1013.2
20260505054419 45 68 0.9 2.6 0.00 0.00 0.00 90 1013.2
20260505053357 45 68 1.7 2.6 0.00 0.00 0.00 90 1013.2
20260505052347 45 69 0.9 2.6 0.00 0.00 0.00 89 1013.2
20260505051359 45 70 0.9 2.6 0.00 0.00 0.00 90 1013.2
20260505041139 46 75 1.7 2.6 0.00 0.00 0.00 89 1013.1
20260505032740 47 75 0.9 1.7 0.00 0.00 0.00 89 1013.4
20260505030637 48 75 0.9 1.7 0.00 0.00 0.00 88 1013.4
20260505025607 48 75 1.7 3.5 0.00 0.00 0.00 88 1013.5
20260505023506 49 78 2.6 6.1 0.00 0.00 0.00 86 1013.3
20260505022439 49 80 2.6 6.1 0.00 0.00 0.00 86 1013.4
20260505021412 49 89 1.7 5.2 0.00 0.00 0.00 86 1013.4
20260505015159 49 52 3.5 7.8 0.00 0.00 0.00 86 1013.6